| time (UTC) | temp F | wind direction | speed MPH | gust MPH | rain 1hr in | rain 24hr in | rain mn in | humidity % | barometer mb |
| 20260510184600 | 53 | 0 | 0.0 | 2.0 | 0.00 | 0.00 | 0.00 | 86 | 1029.8 |
| 20260510183044 | 53 | 0 | 0.0 | 3.0 | 0.00 | 0.00 | 0.00 | 86 | 1029.8 |
| 20260510181549 | 53 | 0 | 0.0 | 3.0 | 0.00 | 0.00 | 0.00 | 86 | 1029.6 |
| 20260510180045 | 54 | 42 | 0.0 | 3.0 | 0.00 | 0.00 | 0.00 | 86 | 1029.6 |
| 20260510174555 | 53 | 0 | 0.0 | 3.0 | 0.00 | 0.00 | 0.00 | 86 | 1029.6 |
| 20260510173045 | 53 | 0 | 0.0 | 2.0 | 0.00 | 0.00 | 0.00 | 86 | 1029.6 |
| 20260510171548 | 53 | 0 | 0.0 | 1.0 | 0.00 | 0.00 | 0.00 | 85 | 1029.5 |
| 20260510170048 | 53 | 0 | 0.0 | 1.0 | 0.00 | 0.00 | 0.00 | 85 | 1029.6 |
| 20260510164553 | 53 | 0 | 0.0 | 0.0 | 0.00 | 0.00 | 0.00 | 85 | 1029.9 |
| 20260510163045 | 53 | 0 | 0.0 | 0.0 | 0.00 | 0.00 | 0.00 | 85 | 1030.0 |
| 20260510161551 | 53 | 0 | 0.0 | 0.0 | 0.00 | 0.00 | 0.00 | 85 | 1030.0 |
| 20260510160049 | 54 | 0 | 0.0 | 0.0 | 0.00 | 0.00 | 0.00 | 85 | 1030.3 |
| 20260510154555 | 54 | 0 | 0.0 | 0.0 | 0.00 | 0.00 | 0.00 | 85 | 1030.3 |
| 20260510153051 | 54 | 0 | 0.0 | 0.0 | 0.00 | 0.00 | 0.00 | 86 | 1030.6 |
| 20260510151552 | 54 | 0 | 0.0 | 0.0 | 0.00 | 0.00 | 0.00 | 86 | 1030.8 |
| 20260510150056 | 53 | 0 | 0.0 | 0.0 | 0.00 | 0.00 | 0.00 | 87 | 1030.9 |
| 20260510144606 | 53 | 0 | 0.0 | 0.0 | 0.00 | 0.00 | 0.00 | 87 | 1031.0 |
| 20260510143053 | 53 | 0 | 0.0 | 0.0 | 0.00 | 0.00 | 0.00 | 87 | 1031.0 |
| 20260510141544 | 52 | 0 | 0.0 | 0.0 | 0.00 | 0.00 | 0.00 | 86 | 1030.9 |
| 20260510140046 | 53 | 0 | 0.0 | 1.0 | 0.00 | 0.00 | 0.00 | 85 | 1030.8 |
| 20260510134549 | 54 | 0 | 0.0 | 2.0 | 0.00 | 0.00 | 0.00 | 85 | 1030.8 |
| 20260510133048 | 54 | 0 | 0.0 | 0.0 | 0.00 | 0.00 | 0.00 | 85 | 1030.9 |
| 20260510131547 | 54 | 0 | 0.0 | 2.0 | 0.00 | 0.00 | 0.00 | 85 | 1031.0 |
| 20260510130048 | 54 | 0 | 0.0 | 2.0 | 0.00 | 0.00 | 0.00 | 85 | 1030.9 |
| 20260510124548 | 54 | 0 | 0.0 | 0.0 | 0.00 | 0.00 | 0.00 | 85 | 1030.8 |
| 20260510123045 | 54 | 0 | 0.0 | 0.0 | 0.00 | 0.00 | 0.00 | 85 | 1030.9 |
| 20260510121553 | 55 | 0 | 0.0 | 1.0 | 0.00 | 0.00 | 0.00 | 84 | 1031.0 |
| 20260510120051 | 55 | 0 | 0.0 | 3.0 | 0.00 | 0.00 | 0.00 | 84 | 1031.1 |
| 20260510114606 | 56 | 0 | 0.0 | 2.0 | 0.00 | 0.00 | 0.00 | 84 | 1031.1 |
| 20260510113054 | 56 | 0 | 0.0 | 2.0 | 0.00 | 0.00 | 0.00 | 84 | 1031.2 |
| 20260510111546 | 56 | 0 | 0.0 | 3.0 | 0.00 | 0.00 | 0.00 | 84 | 1031.2 |
| 20260510110046 | 56 | 0 | 0.0 | 1.0 | 0.00 | 0.00 | 0.00 | 84 | 1031.2 |
| 20260510104554 | 56 | 0 | 0.0 | 0.0 | 0.00 | 0.00 | 0.00 | 84 | 1031.6 |
| 20260510103049 | 56 | 0 | 0.0 | 0.0 | 0.00 | 0.00 | 0.00 | 83 | 1031.7 |
| 20260510101548 | 57 | 0 | 0.0 | 0.0 | 0.00 | 0.00 | 0.00 | 83 | 1031.5 |
| 20260510100058 | 57 | 0 | 0.0 | 0.0 | 0.00 | 0.00 | 0.00 | 83 | 1031.1 |
| 20260510094552 | 57 | 0 | 0.0 | 0.0 | 0.00 | 0.00 | 0.00 | 82 | 1031.0 |
| 20260510093045 | 58 | 0 | 0.0 | 0.0 | 0.00 | 0.00 | 0.00 | 82 | 1030.9 |
| 20260510091544 | 58 | 0 | 0.0 | 5.0 | 0.00 | 0.00 | 0.00 | 81 | 1030.7 |
| 20260510090043 | 59 | 35 | 0.0 | 4.0 | 0.00 | 0.00 | 0.00 | 80 | 1030.4 |
| 20260510084548 | 59 | 0 | 0.0 | 5.0 | 0.00 | 0.00 | 0.00 | 79 | 1030.4 |
| 20260510083048 | 60 | 17 | 3.0 | 9.0 | 0.00 | 0.00 | 0.00 | 79 | 1030.3 |
| 20260510081546 | 60 | 29 | 2.0 | 8.0 | 0.00 | 0.00 | 0.00 | 78 | 1029.9 |
| 20260510080050 | 60 | 0 | 3.0 | 7.0 | 0.00 | 0.00 | 0.00 | 77 | 1029.5 |
| 20260510074546 | 61 | 0 | 1.0 | 6.0 | 0.00 | 0.00 | 0.00 | 76 | 1029.5 |
| 20260510073050 | 62 | 0 | 2.0 | 5.0 | 0.00 | 0.00 | 0.00 | 74 | 1029.5 |
| 20260510071639 | 62 | 51 | 0.0 | 5.0 | 0.00 | 0.00 | 0.00 | 73 | 1029.4 |
| 20260510070105 | 63 | 34 | 0.0 | 4.0 | 0.00 | 0.00 | 0.00 | 72 | 1029.3 |
| 20260510064552 | 64 | 12 | 0.0 | 7.0 | 0.00 | 0.00 | 0.00 | 71 | 1029.2 |
| 20260510063059 | 64 | 39 | 0.0 | 7.0 | 0.00 | 0.00 | 0.00 | 70 | 1029.0 |
| 20260510061548 | 65 | 0 | 0.0 | 2.0 | 0.00 | 0.00 | 0.00 | 69 | 1028.9 |
| 20260510060050 | 65 | 0 | 0.0 | 7.0 | 0.00 | 0.00 | 0.00 | 69 | 1028.8 |
| 20260510054553 | 65 | 23 | 0.0 | 7.0 | 0.00 | 0.00 | 0.00 | 68 | 1028.7 |
| 20260510053047 | 66 | 44 | 3.0 | 10.0 | 0.00 | 0.00 | 0.00 | 68 | 1028.5 |
| 20260510051548 | 66 | 13 | 0.0 | 8.0 | 0.00 | 0.00 | 0.00 | 66 | 1028.4 |
| 20260510050045 | 66 | 0 | 1.0 | 8.0 | 0.00 | 0.00 | 0.00 | 65 | 1028.5 |
| 20260510044543 | 66 | 0 | 0.0 | 3.0 | 0.00 | 0.00 | 0.00 | 65 | 1028.4 |
| 20260510043048 | 67 | 0 | 0.0 | 2.0 | 0.00 | 0.00 | 0.00 | 64 | 1028.7 |
| 20260510041553 | 67 | 0 | 0.0 | 5.0 | 0.00 | 0.00 | 0.00 | 62 | 1028.7 |
| 20260510040049 | 67 | 0 | 0.0 | 3.0 | 0.00 | 0.00 | 0.00 | 62 | 1028.8 |
| 20260510034550 | 67 | 0 | 0.0 | 2.0 | 0.00 | 0.00 | 0.00 | 62 | 1028.8 |
| 20260510033103 | 67 | 0 | 0.0 | 8.0 | 0.00 | 0.00 | 0.00 | 62 | 1028.9 |
| 20260510031605 | 67 | 38 | 0.0 | 2.0 | 0.00 | 0.00 | 0.00 | 62 | 1028.8 |
| 20260510030054 | 67 | 0 | 0.0 | 3.0 | 0.00 | 0.00 | 0.00 | 63 | 1029.2 |
| 20260510024549 | 66 | 0 | 0.0 | 2.0 | 0.00 | 0.00 | 0.00 | 65 | 1029.2 |
| 20260510023051 | 67 | 0 | 1.0 | 5.0 | 0.00 | 0.00 | 0.00 | 62 | 1029.5 |
| 20260510021551 | 67 | 9 | 0.0 | 2.0 | 0.00 | 0.00 | 0.00 | 63 | 1029.8 |
| 20260510020052 | 68 | 0 | 0.0 | 4.0 | 0.00 | 0.00 | 0.00 | 61 | 1029.6 |
| 20260510014600 | 68 | 61 | 0.0 | 3.0 | 0.00 | 0.00 | 0.00 | 60 | 1029.8 |
| 20260510013056 | 68 | 0 | 0.0 | 5.0 | 0.00 | 0.00 | 0.00 | 60 | 1030.0 |
| 20260510011558 | 68 | 0 | 0.0 | 3.0 | 0.00 | 0.00 | 0.00 | 61 | 1030.2 |
| 20260510010056 | 66 | 0 | 1.0 | 6.0 | 0.00 | 0.00 | 0.00 | 63 | 1030.1 |
| 20260510004551 | 66 | 352 | 1.0 | 5.0 | 0.00 | 0.00 | 0.00 | 62 | 1030.4 |
| 20260510003056 | 65 | 0 | 0.0 | 3.0 | 0.00 | 0.00 | 0.00 | 63 | 1030.4 |
| 20260510001551 | 65 | 33 | 0.0 | 6.0 | 0.00 | 0.00 | 0.00 | 61 | 1030.5 |
| 20260510000055 | 65 | 44 | 1.0 | 4.0 | 0.00 | 0.00 | 0.00 | 61 | 1030.8 |
| 20260509234604 | 64 | 51 | 1.0 | 4.0 | 0.00 | 0.00 | 0.00 | 62 | 1030.8 |
| 20260509233047 | 64 | 22 | 0.0 | 4.0 | 0.00 | 0.00 | 0.00 | 64 | 1030.7 |
| 20260509231548 | 63 | 42 | 1.0 | 3.0 | 0.00 | 0.00 | 0.00 | 64 | 1030.9 |
| 20260509230047 | 62 | 53 | 1.0 | 5.0 | 0.00 | 0.00 | 0.00 | 66 | 1030.9 |
| 20260509224543 | 62 | 86 | 1.0 | 4.0 | 0.00 | 0.00 | 0.00 | 67 | 1030.7 |
| 20260509223056 | 60 | 32 | 1.0 | 5.0 | 0.00 | 0.00 | 0.00 | 69 | 1030.3 |
| 20260509221551 | 60 | 12 | 0.0 | 5.0 | 0.00 | 0.00 | 0.00 | 70 | 1029.8 |
| 20260509220059 | 59 | 54 | 1.0 | 5.0 | 0.00 | 0.00 | 0.00 | 70 | 1029.6 |
| 20260509214543 | 58 | 59 | 0.0 | 3.0 | 0.00 | 0.00 | 0.00 | 72 | 1029.3 |
| 20260509213052 | 56 | 0 | 0.0 | 0.0 | 0.00 | 0.00 | 0.00 | 75 | 1029.3 |
| 20260509211546 | 54 | 0 | 0.0 | 0.0 | 0.00 | 0.00 | 0.00 | 76 | 1029.2 |
| 20260509210044 | 53 | 0 | 0.0 | 0.0 | 0.00 | 0.00 | 0.00 | 77 | 1029.2 |
| 20260509204559 | 50 | 0 | 0.0 | 0.0 | 0.00 | 0.00 | 0.00 | 81 | 1028.7 |
| 20260509203045 | 48 | 0 | 0.0 | 0.0 | 0.00 | 0.00 | 0.00 | 82 | 1028.3 |
| 20260509201548 | 49 | 0 | 0.0 | 0.0 | 0.00 | 0.00 | 0.00 | 80 | 1028.2 |
| 20260509200053 | 49 | 0 | 0.0 | 0.0 | 0.00 | 0.00 | 0.00 | 81 | 1028.1 |
| 20260509194546 | 49 | 0 | 0.0 | 0.0 | 0.00 | 0.00 | 0.00 | 82 | 1028.0 |
| 20260509193051 | 49 | 0 | 0.0 | 0.0 | 0.00 | 0.00 | 0.00 | 82 | 1027.8 |
| 20260509191552 | 49 | 0 | 0.0 | 0.0 | 0.00 | 0.00 | 0.00 | 83 | 1027.8 |
| 20260509190052 | 49 | 0 | 0.0 | 0.0 | 0.00 | 0.00 | 0.00 | 84 | 1027.7 |